Weather in Mstihino

Russia / Kaluga Oblast     54°33′31″N   36°07′36″E
temp.,
°C
wind,
m/s
gust,
m/s
humid.,
%
clouds,
%
prec.,
mm/h
press.,
hPa
HPBL,
m
19 april, mon
mon1900:00+6ne389398 0.2 1020336
03:00+5ne399399 0.2 1020377
06:00+5ne41094100 0.0 1020397
09:00+6ene51189100 0.1 1021632
12:00+6ene5118598 0.1 10211013
15:00+8e4983100 0.3 10201226
18:00+6ene61192100 1.8 10201045
21:00+5ene61295100 3.9 10201123
20 april, tue
tue2000:00+4ene61297100 1.0 1020841
03:00+3ene61297100 1.2 1019621
06:00+3ene51297100 2.9 1018618
09:00+4e51194100 6.4 1018677
12:00+4e61096100 0.0 1017687
15:00+3ene51096100 0.0 1015551
18:00+2ene51197100 0.0 1013566
21:00+2ne51197100 0.1 1011609
21 april, wed
wed2100:00+1nne41198100 3.4 1007432
03:00+1n4999100 6.8 1003380
06:00+1nw4899100 2.0 1001342
09:00+1w4899100 3.1 1002303
12:00+2wsw51198100 0.2 1004593
15:00+4wsw51092100 0.3 1007877
18:00+5sw51089100 0.1 1009520
21:00+3ssw41095100 0.1 1011353
22 april, thu
thu2200:00+3ssw4129497 0.1 1012321
03:00+2s4119489 0.1 1012260
06:00+3s21098100 4.9 1013391
09:00+7ssw5108994 6.2 1014535
12:00+11sw5776100 0.6 10141073
15:00+13sw576771 1.3 10151374
18:00+12sw36795 0.8 1016546
21:00+8sse23895 1.0 101743
23 april, fri
fri2300:00+6s379235 0.0 1017123
03:00+6s389318 0.0 1017140
06:00+6sse310939 0.0 1017180
09:00+12s4117677 0.0 1016508
12:00+15s711585 0.8 10151848
15:00+15s712595 1.7 10131643
18:00+13s61265100 0.9 1012953
21:00+10s51292100 4.3 1012924